Simultaneous Nadir Overpasses (SNOs) Predictions

Prediction of SNOs between GOES-16 and NOAA-20 Satellite Orbit:

Table of predicted SNOs for the next 14.0 days since TLE Epoch: 8/21/2021
Index Date Time (GOES-16) GOES-16 Lat,Lon NOAA-20 Lat,Lon Distance(km) Time Diff (sec)
1 08/21/2021 06:39:02 -0.13, -75.21 0.55, -78.21 342.91 80
2 08/22/2021 06:17:37 -0.13, -75.23 -0.48, -73.69 176.05 80
3 08/23/2021 18:39:33 0.14, -75.27 -0.70, -78.99 423.74 80
4 08/24/2021 18:23:29 0.13, -75.31 0.33, -74.46 96.04 80
5 08/26/2021 06:45:16 -0.14, -75.35 0.86, -79.73 499.52 80
6 08/27/2021 06:23:52 -0.14, -75.38 -0.17, -75.20 20.43 80
7 08/29/2021 18:27:04 0.14, -75.47 0.02, -75.98 58.21 80
8 08/30/2021 18:10:59 0.14, -75.51 1.05, -71.46 462.15 80
9 09/01/2021 06:32:46 -0.15, -75.57 0.14, -76.72 132.58 80
10 09/02/2021 06:11:22 -0.15, -75.60 -0.90, -72.20 387.77 80
11 09/03/2021 18:33:18 0.16, -75.66 -0.28, -77.50 210.63 80
